Nogales, AZ

1:43 AM MST on May 26, 2017 (GMT -0700)
Nogales International

Weather History for KOLS - July, 2013

Change the Weather History Date:

Thursday, July 11, 2013

  Actual Average (KFHU) Record (KFHU)
Temperature  
Mean Temperature 77 °F -  
Max Temperature 90 °F 89 °F 100 °F (1982)
Min Temperature 64 °F 70 °F 59 °F (1989)
Cooling Degree Days 12    
Growing Degree Days 27 (Base 50)    
Moisture  
Dew Point 63 °F    
Average Humidity 69    
Maximum Humidity 93    
Minimum Humidity 35    
Precipitation  
Precipitation 0.04 in - - ()
Sea Level Pressure  
Sea Level Pressure 29.92 in    
Wind  
Wind Speed 4 mph (NNW)    
Max Wind Speed 8 mph    
Max Gust Speed 17 mph    
Visibility 10 miles    
Events Rain , Thunderstorm    
Averages and records for this station are not official NWS values.
T = Trace of Precipitation, MM = Missing Value Source: NWS Daily Summary

Daily Weather History Graph

Daily Weather History Graph

Search for Another Location

Airport or City:

Trip Planner

Search our weather history database for the weather conditions in past years. The results will help you decide how hot, cold, wet, or windy it might be!

Date:

Astronomy

Jul. 11, 2013 Rise Set
Actual Time 5:27 AM MST 7:30 PM MST
Civil Twilight 4:59 AM MST 7:57 PM MST
Nautical Twilight 4:26 AM MST 8:31 PM MST
Astronomical Twilight 3:50 AM MST 9:07 PM MST
Moon 8:33 AM MST (7/11) 9:30 PM MST (7/11)
Length of Visible Light 14h 58m
Length of Day
14h 03m
Waxing Crescent, 11% of the Moon is Illuminated
Jul 11
Waxing Crescent
Jul 15
First Quarter
Jul 22
Full
Jul 29
Last Quarter
Aug 6
New

Hourly Weather History & Observations

Time (MST) Temp. Heat Index Dew Point Humidity Pressure Visibility Wind Dir Wind Speed Gust Speed Precip Events Conditions
12:15 AM 64.9 °F - 62.1 °F 90% 30.13 in 10.0 mi NNE 5.8 mph - 0.01 in Rain Light Rain
12:31 AM 64.9 °F - 62.1 °F 90% 30.13 in 10.0 mi NNE 5.8 mph - 0.01 in Thunderstorm Overcast
12:46 AM 66.0 °F - 63.0 °F 90% 30.13 in 8.0 mi North 5.8 mph - 0.01 in Rain Light Rain
12:54 AM 64.9 °F - 63.0 °F 93% 29.94 in 10.0 mi West 5.8 mph - 0.02 in Rain Light Rain
1:54 AM 66.0 °F - 63.0 °F 90% 29.92 in 10.0 mi Calm Calm - 0.00 in   Clear
2:54 AM 66.0 °F - 64.0 °F 93% 29.93 in 10.0 mi Calm Calm - N/A   Clear
3:54 AM 66.0 °F - 63.0 °F 90% 29.94 in 10.0 mi Calm Calm - N/A   Clear
4:54 AM 66.0 °F - 63.0 °F 90% 29.94 in 10.0 mi NE 4.6 mph - N/A   Clear
5:21 AM 66.0 °F - 63.0 °F 90% 30.11 in 10.0 mi ENE 4.6 mph - N/A   Partly Cloudy
5:54 AM 66.0 °F - 63.0 °F 90% 29.94 in 10.0 mi SSW 4.6 mph - N/A   Clear
6:02 AM 66.0 °F - 63.0 °F 90% 30.12 in 10.0 mi South 3.5 mph - N/A   Scattered Clouds
6:54 AM 69.1 °F - 64.9 °F 87% 29.95 in 10.0 mi Calm Calm - N/A   Partly Cloudy
7:54 AM 73.0 °F - 64.0 °F 73% 29.94 in 10.0 mi Calm Calm - N/A   Clear
8:54 AM 77.0 °F - 64.9 °F 66% 29.93 in 10.0 mi Calm Calm - N/A   Clear
9:54 AM 82.0 °F 83.4 °F 64.0 °F 54% 29.91 in 10.0 mi North - - N/A   Clear
10:54 AM 82.9 °F 83.7 °F 62.1 °F 49% 29.90 in 10.0 mi Variable 3.5 mph - N/A   Mostly Cloudy
11:54 AM 84.9 °F 84.2 °F 57.9 °F 40% 29.91 in 10.0 mi SW 3.5 mph - N/A   Mostly Cloudy
12:54 PM 87.1 °F 86.5 °F 59.0 °F 39% 29.88 in 10.0 mi SSW 8.1 mph 17.3 mph N/A   Clear
1:54 PM 87.1 °F 86.1 °F 57.9 °F 37% 29.86 in 10.0 mi Variable 3.5 mph - N/A   Clear
2:54 PM 90.0 °F 89.1 °F 59.0 °F 35% 29.83 in 10.0 mi WSW 8.1 mph - N/A   Clear
3:54 PM 87.1 °F 86.7 °F 60.1 °F 40% 29.82 in 10.0 mi WNW 8.1 mph 16.1 mph N/A   Partly Cloudy
4:54 PM 86.0 °F 85.4 °F 59.0 °F 40% 29.82 in 10.0 mi Variable 3.5 mph - 0.00 in Rain Light Rain
5:54 PM 86.0 °F 85.7 °F 60.1 °F 41% 29.81 in 10.0 mi Variable 5.8 mph - 0.00 in   Overcast
6:54 PM 82.0 °F 84.5 °F 66.9 °F 60% 29.81 in 10.0 mi ENE 5.8 mph - 0.02 in   Clear
7:54 PM 81.0 °F 82.5 °F 64.0 °F 56% 29.81 in 10.0 mi NNW 4.6 mph - N/A   Clear
8:54 PM 79.0 °F - 64.9 °F 62% 29.82 in 10.0 mi North 3.5 mph - N/A   Clear
9:54 PM 78.1 °F - 66.0 °F 66% 29.84 in 10.0 mi Calm Calm - N/A   Scattered Clouds
10:54 PM 75.9 °F - 66.0 °F 71% 29.82 in 10.0 mi NE 5.8 mph - N/A   Clear
11:54 PM 75.0 °F - 68.0 °F 79% 29.83 in 10.0 mi South 5.8 mph - N/A   Mostly Cloudy